Location: Gandikunta
(16.3784°N, 80.8378°E)
Time: 07:06:56
(UTC+00:00)

Cosmos 2263 Rocket - Pass Details

Date: 19 May 2025
Orbit: 821 x 849 km, 71.0° (Epoch: 18 June)

Event Time Altitude Azimuth Distance (km) Brightness Sun altitude
Exits shadow 22:16:55 17° 311° (NW) 1,985 3.9 -24.1°
Drops below altitude 10° 22:19:18 10° 335° (NNW) 2,443 4.7 -23.6°
Sets 22:22:29 0° 353° (N) 3,383 5.7 -23.0°
